[[{"header":{"parameterUnit":"m.s-1","parameterCategory":1,"la1":30.2991,"la2":30.254,"lo1":-89.0895,"lo2":-89.0444,"dy":0.0017,"dx":0.0017,"nx":28,"ny":28,"refTime":"2025-08-21T09:00:00:Z","depth":0,"parameterNumber":2,"parameterNumberName":"U-component_of_WINDS"},"data":[0,0,0,0,0,0,0,0,0,0,0,0,0,0,0,0,0,0,0,0,0,0,0,0,0,0,0,0,0,0,0,0,0,0,0,0,0,0,0,0,0,0,0,0,0,0,0,0,0,0,0,0,0,0,0,0,0,0,1.3176,1.3176,0,1.3209,1.3209,1.3209,1.3234,1.3234,1.3234,1.3234,1.3267,1.3268,1.3269,0,0,0,0,0,0,0,0,0,0,0,0,0,1.3133,1.3134,1.3176,1.3176,1.3177,1.3209,1.3209,1.3209,1.3234,1.3234,1.3234,1.3235,1.3267,1.3268,1.3269,0,0,0,0,0,0,0,0,0,0,0,0,0,1.3157,1.3134,1.3176,1.3193,1.3195,1.3208,1.3209,1.321,1.3234,1.3234,1.3234,1.3235,1.3267,1.3268,1.3269,1.3268,0,0,1.3272,1.3272,0,0,0,0,0,0,0,0,1.3156,1.3159,1.319,1.3192,1.3194,1.3217,1.3206,1.3229,1.3234,1.3219,1.3234,1.3235,1.325,1.3253,1.3258,1.327,1.3271,1.3272,1.3273,1.3273,1.3273,0,0,0,0,0,0,0,1.3154,1.3158,1.3189,1.319,1.3193,1.3198,1.3202,1.321,1.3232,1.322,1.3222,1.3226,1.3251,1.3257,1.3259,1.3272,1.3272,1.3273,1.3273,1.3274,1.3283,1.3283,0,0,0,0,0,0,1.315,1.3156,1.3188,1.319,1.3175,1.3199,1.3203,1.3209,1.3232,1.3236,1.3225,1.3227,1.3255,1.3258,1.326,1.326,1.3273,1.3274,1.3274,1.3284,1.3283,1.3283,0,0,0,0,0,0,1.3149,1.3153,1.3187,1.3173,1.3178,1.3199,1.3206,1.321,1.3216,1.3236,1.324,1.3227,1.3256,1.3259,1.3266,1.3262,1.3274,1.3275,1.3284,1.3283,1.3283,1.326,0,0,0,0,0,0,1.3148,1.3152,1.3153,1.3173,1.3179,1.3192,1.3206,1.321,1.3217,1.3219,1.3239,1.3242,1.3256,1.3264,1.3267,1.3263,1.3276,1.3284,1.3284,1.3283,1.3262,1.3259,1.3257,0,0,0,0,0,1.3146,1.3145,1.3153,1.3156,1.318,1.3192,1.3195,1.3211,1.3217,1.3217,1.323,1.3242,1.3262,1.3265,1.3268,1.3265,1.3285,1.3284,1.3283,1.3263,1.326,1.3257,0,0,0,0,0,0,1.3124,1.3148,1.3157,1.3163,1.3175,1.3196,1.3197,1.3207,1.3218,1.3219,1.3238,1.3242,1.3247,1.3257,1.3259,1.3265,1.3275,1.3274,1.3258,1.3255,1.3253,1.325,1.3277,0,0,0,0,0,1.312,1.3127,1.3148,1.3152,1.3157,1.3176,1.3181,1.3193,1.3206,1.3211,1.3225,1.3237,1.3246,1.3251,1.3261,1.3263,1.3267,1.3263,1.326,1.3258,1.3258,1.3258,1.3256,1.328,1.328,1.328,0,0,1.3111,1.3125,1.3129,1.3147,1.3158,1.3165,1.318,1.3187,1.3192,1.3212,1.3219,1.3229,1.3244,1.3248,1.3251,1.3257,1.3252,1.3257,1.3256,1.3256,1.3257,1.3255,1.3253,1.328,1.328,1.328,0,0,1.3098,1.3111,1.3114,1.3124,1.314,1.3152,1.3153,1.3172,1.3179,1.3187,1.3202,1.3208,1.3223,1.3233,1.3239,1.3229,1.324,1.3232,1.322,1.322,1.3218,1.3216,1.3211,1.321,1.3231,1.3231,1.3231,0,1.3086,1.3097,1.3114,1.312,1.3127,1.3145,1.3148,1.3157,1.3175,1.3179,1.3185,1.3204,1.3216,1.3222,1.3219,1.3224,1.3225,1.3229,1.3217,1.3216,1.3214,1.321,1.3208,1.323,1.323,1.323,1.323,0,1.308,1.3087,1.3088,1.3105,1.3112,1.3116,1.3133,1.3138,1.3148,1.316,1.3166,1.318,1.3192,1.3195,1.3205,1.3202,1.3204,1.3214,1.3224,1.3211,1.3206,1.3205,1.3228,1.3229,1.3229,1.3229,0,0,1.3055,1.308,1.308,1.3087,1.3105,1.3111,1.3116,1.3127,1.313,1.3142,1.3146,1.3158,1.3166,1.3173,1.3185,1.3185,1.3174,1.3194,1.3195,1.3189,1.317,1.3162,1.316,1.3182,1.3181,1.3181,1.3168,0,1.3044,1.3054,1.3069,1.3073,1.3079,1.3096,1.31,1.3111,1.3121,1.3128,1.3139,1.3147,1.3158,1.3162,1.3163,1.3175,1.3171,1.3177,1.3184,1.3184,1.3179,1.3158,1.315,1.3137,1.3167,1.3167,1.3167,0,1.3034,1.3044,1.3048,1.3065,1.3068,1.3071,1.3082,1.3088,1.3101,1.3108,1.3116,1.3128,1.3133,1.3143,1.3149,1.3153,1.3157,1.3163,1.3163,1.3163,1.3174,1.3157,1.3134,1.3131,1.3164,1.3165,1.3165,0,1.3014,1.3028,1.3033,1.3038,1.3058,1.3059,1.3067,1.308,1.3086,1.3095,1.3099,1.3109,1.3114,1.3121,1.3135,1.3141,1.3139,1.3151,1.3145,1.3144,1.3143,1.3143,1.3119,1.3147,1.3147,1.3147,1.3147,0,1.3,1.3002,1.3023,1.3026,1.3028,1.3045,1.3046,1.3056,1.3067,1.3071,1.3086,1.309,1.3109,1.3114,1.3125,1.3128,1.3131,1.3136,1.3139,1.3134,1.3133,1.3136,1.3137,1.3147,1.3147,1.3147,1.3147,0,1.2978,1.2992,1.2998,1.3015,1.302,1.302,1.3035,1.3038,1.3049,1.3053,1.3056,1.3073,1.3079,1.3094,1.3106,1.3113,1.3112,1.3118,1.3108,1.311,1.3102,1.3102,1.3078,1.3076,1.3107,1.3107,1.3106,0,1.2968,1.2969,1.2987,1.299,1.2998,1.3004,1.3009,1.3025,1.303,1.3043,1.3044,1.3052,1.3059,1.307,1.3083,1.3091,1.3096,1.3087,1.3098,1.3092,1.3094,1.3094,1.3093,1.3085,1.3084,1.3084,1.3084,0,1.2948,1.2954,1.2962,1.2971,1.2976,1.2985,1.2994,1.2996,1.3014,1.3018,1.3025,1.3031,1.3042,1.3049,1.3059,1.3067,1.3078,1.308,1.3079,1.3074,1.3067,1.3069,1.31,1.3081,1.3081,1.3081,1.3081,1.3082,1.293,1.2932,1.2944,1.2951,1.2959,1.2967,1.2969,1.298,1.2986,1.2996,1.3005,1.3011,1.3022,1.3036,1.3044,1.3048,1.3053,1.3052,1.3052,1.3051,1.3048,1.3067,1.305,1.305,1.305,1.305,1.305,0,1.291,1.2918,1.2925,1.2936,1.2941,1.2951,1.2961,1.2964,1.2969,1.2978,1.2985,1.2992,1.2999,1.3012,1.302,1.3021,1.3026,1.3022,1.3021,1.3023,1.3043,1.3043,1.3018,1.3018,1.3018,1.3018,1.3018,1.3018,1.29,1.2903,1.2911,1.2917,1.2925,1.2931,1.2935,1.2942,1.2949,1.2956,1.2962,1.297,1.2981,1.2989,1.2995,1.2999,1.3001,1.2995,1.3,1.3019,1.3022,1.3025,1.3024,1.2996,1.2995,1.2979,1.2979,1.2979]},{"header":{"parameterUnit":"m.s-1","parameterCategory":1,"la1":30.2991,"la2":30.254,"lo1":-89.0895,"lo2":-89.0444,"dy":0.0017,"dx":0.0017,"nx":28,"ny":28,"refTime":"2025-08-21T09:00:00:Z","depth":0,"parameterNumber":3,"parameterNumberName":"V-component_of_WINDS"},"data":[0,0,0,0,0,0,0,0,0,0,0,0,0,0,0,0,0,0,0,0,0,0,0,0,0,0,0,0,0,0,0,0,0,0,0,0,0,0,0,0,0,0,0,0,0,0,0,0,0,0,0,0,0,0,0,0,0,0,2.7248,2.7249,0,2.7284,2.7284,2.7284,2.7264,2.7263,2.7262,2.7261,2.7293,2.7295,2.7297,0,0,0,0,0,0,0,0,0,0,0,0,0,2.716,2.7162,2.7248,2.7249,2.7249,2.7284,2.7284,2.7285,2.7264,2.7263,2.7262,2.726,2.7293,2.7295,2.7297,0,0,0,0,0,0,0,0,0,0,0,0,0,2.7197,2.7162,2.7248,2.7243,2.7243,2.7284,2.7284,2.7285,2.7264,2.7263,2.7261,2.726,2.7292,2.7295,2.7297,2.7344,0,0,2.7306,2.7307,0,0,0,0,0,0,0,0,2.7195,2.72,2.7244,2.7244,2.7244,2.7268,2.7265,2.7304,2.7265,2.7256,2.7261,2.7259,2.7286,2.7289,2.7299,2.7345,2.7347,2.7306,2.7308,2.7309,2.7309,0,0,0,0,0,0,0,2.7192,2.7199,2.7262,2.7244,2.7244,2.7238,2.7242,2.7272,2.7279,2.7257,2.7255,2.726,2.7286,2.7296,2.7299,2.7347,2.7306,2.7308,2.731,2.7311,2.7433,2.7434,0,0,0,0,0,0,2.7191,2.7197,2.7261,2.7263,2.7215,2.7241,2.7245,2.7262,2.7278,2.728,2.7261,2.7259,2.7292,2.7296,2.73,2.7355,2.7309,2.7311,2.7313,2.7431,2.7433,2.7435,0,0,0,0,0,0,2.7189,2.7197,2.726,2.723,2.7237,2.7244,2.7263,2.7263,2.7274,2.7282,2.7283,2.7271,2.7291,2.7297,2.7333,2.7356,2.7312,2.7315,2.7429,2.7432,2.7434,2.7466,0,0,0,0,0,0,2.7186,2.7196,2.7215,2.723,2.7239,2.7293,2.7264,2.7265,2.7279,2.7276,2.7291,2.7292,2.7291,2.7329,2.7336,2.7359,2.7317,2.7427,2.743,2.7433,2.7463,2.7469,2.7475,0,0,0,0,0,2.7183,2.7221,2.7216,2.7223,2.7262,2.7294,2.7299,2.7297,2.7281,2.7299,2.7304,2.7292,2.7353,2.7333,2.734,2.7365,2.7426,2.7429,2.7433,2.746,2.7468,2.7474,0,0,0,0,0,0,2.7207,2.7223,2.7217,2.7262,2.7277,2.7291,2.7313,2.7306,2.7325,2.7322,2.7317,2.7321,2.7359,2.7366,2.7344,2.741,2.7386,2.7392,2.7405,2.7412,2.7418,2.7415,2.7319,0,0,0,0,0,2.7217,2.7243,2.7256,2.7294,2.7302,2.7307,2.732,2.7318,2.7333,2.7339,2.7347,2.7361,2.7384,2.7398,2.7419,2.7464,2.7466,2.7484,2.749,2.7495,2.7499,2.7523,2.7531,2.7447,2.7447,2.7447,0,0,2.7239,2.7251,2.7267,2.7299,2.731,2.7336,2.7312,2.734,2.7359,2.7343,2.7378,2.7385,2.74,2.7441,2.7459,2.7447,2.7523,2.7499,2.7503,2.7505,2.7527,2.7535,2.7542,2.7449,2.7449,2.7449,0,0,2.7291,2.7304,2.7337,2.7349,2.7367,2.737,2.7378,2.7394,2.7398,2.7433,2.7422,2.7444,2.7482,2.7494,2.7505,2.7562,2.7552,2.7569,2.7599,2.7623,2.7629,2.7635,2.7655,2.7662,2.7574,2.7574,2.7574,0,2.7315,2.7355,2.7354,2.7384,2.7397,2.7386,2.7418,2.743,2.7454,2.7463,2.745,2.7498,2.7508,2.7551,2.7565,2.7575,2.7583,2.7567,2.7629,2.7634,2.764,2.7659,2.7666,2.7576,2.7575,2.7575,2.7575,0,2.7384,2.7411,2.7435,2.746,2.7477,2.7508,2.751,2.7527,2.7523,2.7527,2.7563,2.7575,2.7598,2.7608,2.7604,2.765,2.7642,2.7629,2.7605,2.765,2.7667,2.7675,2.7579,2.7578,2.7577,2.7577,0,0,2.7451,2.7476,2.7484,2.7495,2.7515,2.7536,2.7566,2.759,2.7604,2.7621,2.7645,2.7678,2.7666,2.7679,2.7676,2.7696,2.7741,2.768,2.7681,2.7691,2.7792,2.7801,2.781,2.7734,2.7735,2.7737,2.779,0,2.7504,2.7558,2.7558,2.7608,2.7633,2.7622,2.7648,2.7662,2.7667,2.7688,2.7693,2.7716,2.7699,2.7706,2.7726,2.7731,2.7761,2.7727,2.7755,2.7757,2.7751,2.7819,2.7829,2.7879,2.7797,2.7798,2.7799,0,2.7573,2.7594,2.7646,2.7662,2.7673,2.7696,2.7718,2.7739,2.7755,2.7756,2.7771,2.7765,2.7795,2.777,2.7811,2.7788,2.7799,2.7804,2.7806,2.7807,2.778,2.7822,2.7895,2.7902,2.781,2.7809,2.7809,0,2.7616,2.7657,2.7694,2.7703,2.7723,2.774,2.7749,2.7764,2.7778,2.7797,2.7806,2.7827,2.7839,2.7855,2.7855,2.7837,2.7895,2.7871,2.7897,2.7897,2.7908,2.7907,2.7984,2.7917,2.7917,2.7917,2.7917,0,2.7675,2.7708,2.7713,2.7736,2.7771,2.7771,2.7805,2.7813,2.7826,2.7848,2.784,2.7861,2.786,2.7881,2.7881,2.7914,2.7919,2.7921,2.792,2.7921,2.7921,2.7928,2.7924,2.7919,2.7919,2.7918,2.7918,0,2.7729,2.7735,2.7773,2.779,2.7795,2.782,2.7833,2.7854,2.7858,2.7887,2.7893,2.79,2.7924,2.7926,2.7954,2.7954,2.7994,2.799,2.7989,2.7988,2.8013,2.801,2.8096,2.8106,2.8034,2.8035,2.8035,0,2.7766,2.7791,2.781,2.7825,2.7836,2.786,2.7875,2.7876,2.7891,2.7912,2.793,2.7954,2.7973,2.8012,2.8019,2.804,2.8036,2.8064,2.8039,2.8039,2.8035,2.8033,2.8035,2.8069,2.807,2.807,2.8071,0,2.7831,2.7832,2.7855,2.7879,2.7897,2.7915,2.7932,2.7945,2.7948,2.7965,2.7991,2.8006,2.8036,2.8059,2.808,2.8088,2.8079,2.8079,2.8086,2.8087,2.8085,2.8085,2.8001,2.8077,2.8076,2.8076,2.8076,2.8075,2.7877,2.7898,2.7915,2.794,2.7954,2.797,2.799,2.7998,2.802,2.8044,2.8043,2.8071,2.8086,2.8114,2.8123,2.8145,2.8135,2.8145,2.8147,2.8149,2.8152,2.8082,2.8148,2.8148,2.8148,2.8148,2.8148,0,2.794,2.7951,2.7974,2.7999,2.8019,2.8011,2.803,2.8046,2.8072,2.8087,2.8107,2.8136,2.8159,2.8167,2.819,2.8205,2.8202,2.8211,2.8209,2.8211,2.816,2.8151,2.8213,2.8213,2.8213,2.8213,2.8213,2.8213,2.7975,2.8011,2.8015,2.8057,2.8067,2.8096,2.8107,2.8121,2.8134,2.8167,2.8187,2.8193,2.8205,2.8228,2.8248,2.825,2.8258,2.8269,2.8269,2.8221,2.8214,2.8208,2.82,2.8271,2.8271,2.8318,2.8318,2.8319]}]]